Location: Unspecified
(0.0000°N, 0.0000°E)
Time: 18:25:56
(UTC+00:00)

SL-12 DEB - Visible Passes

Search period start: 14 January 2025 00:00
Search period end: 24 January 2025 00:00
Orbit: 452 x 18975 km, 65.6° (Epoch: 10 October)

Date Brightness Start Highest point End Pass type
(mag) Time Alt. Az. Time Alt. Az. Time Alt. Az.
14 Jan ? 04:04:10 10° N 04:18:11 35° NE 04:23:20 10° ESE visible
14 Jan ? 17:30:01 10° SSW 18:05:20 70° WNW 19:49:23 10° N visible
15 Jan ? 05:09:18 10° NNW 05:22:22 71° WSW 05:26:49 10° SSE visible
15 Jan ? 18:36:11 10° SW 19:13:56 45° WNW 20:51:10 10° N visible
16 Jan ? 19:48:15 10° WSW 20:24:30 24° WNW 21:41:19 10° NNW visible
17 Jan ? 02:58:07 10° N 03:08:24 18° NE 03:13:40 10° E visible
17 Jan ? 16:21:46 10° SSW 16:55:56 89° W 18:40:15 10° NNE visible
18 Jan ? 03:59:48 10° NNW 04:14:01 49° ENE 04:18:51 10° SE visible
18 Jan ? 17:25:25 10° SW 18:01:49 62° WNW 19:44:36 10° N visible
19 Jan ? 05:05:02 10° NNW 05:16:23 46° W 05:20:42 10° S visible
19 Jan ? 18:31:55 10° SW 19:10:11 38° WNW 20:43:30 10° N visible
20 Jan ? 19:47:06 10° WSW 20:20:28 19° WNW 21:24:25 10° NNW visible
21 Jan ? 02:50:24 10° N 03:02:20 23° NE 03:07:38 10° E visible
21 Jan ? 16:14:19 10° SSW 16:49:17 81° W 18:33:52 10° N visible
22 Jan ? 03:52:26 10° NNW 04:06:17 67° ENE 04:10:54 10° SSE visible
22 Jan ? 17:17:46 10° SW 17:55:07 55° WNW 19:36:13 10° N visible
23 Jan ? 05:01:03 17° NW 05:07:05 31° W 05:11:13 10° SSW visible
23 Jan ? 18:24:41 10° WSW 19:03:01 33° WNW 20:31:59 10° NNW visible
